STARLINK-31534, 59398

Orbit data source: Space-Track

STARLINK-31534, 59398 is a payload satellite owned by SpaceX/Seattle (US) in LEO that was launched on Fri, 05 Apr 2024 UTC via an FALCON 9 launch vehicle from the Air Force Eastern Test Range (AFETR). Payload-class satellites include a variety of spacecraft equipped with specific instruments for various scientific and technological missions. These include communications satellites like Starlink; space stations such as the ISS; scientific satellites like the Hubble; Earth observation satellites from companies like Planet Labs, Umbra, and HawkEye 360; GPS; miniature CubeSats for education and research; and military/defense satellites.

Loading next visibility...
Identifier
59398, 2024-064A
Orbit
LEO
Country
Flag of USUS
Related business
Manufacturer
SpaceX/Seattle
Mission
Operational Commercial Communications
Bus & Motor
STARLINK V2M, Unknown motor
Mass
730 kg wet, ~700 kg dry
Launch date (UTC)
2024-04-05 (2 years ago)
Launch vehicle
FALCON 9
Launch site
Air Force Eastern Test Range (AFETR)
Object type
Payload
Rocket body
Debris
Shape & HBR
Box + 2 Pan, 17.7 m
Radar Cross Section
33.884 m², Large (>1 m²)

Expand to show TLE details & history
Last TLE update: 2 days ago

TLE from 2 days ago
0 STARLINK-31534
1 59398U 24064A   26171.36949595  .00000532  00000-0  28861-4 0  9996
2 59398  43.0020 195.9231 0001647 279.8873  80.1792 15.27577624124872
Epoch: 2026-06-20T08:52Z
TLE epoch observation values (Epoch: 2026-06-20T08:52:04.450Z)
Latitude
-0.00005°
Longitude
154.3194°
Altitude
482.639 km
Speed
7.626 km/s
True Right ascension
13h 03m 41s
True Declination
0° 00' 00"
Sunlit
Object was in daylight at epoch
Visualization orbit readout
Latitude
Unknown
Longitude
Unknown
Altitude
Unknown
Speed
Unknown
Apparent Right ascension
Unknown
Apparent Declination
Unknown
Sunlit
N/A
Visualization observer readout
Local Sidereal Time
21:27:04
Azimuth
Unknown
Elevation
Unknown
Doppler factor
Unknown
Orbital elements
Apogee altitude
486.131 km
Perigee altitude
483.871 km
Semi-major axis
6,863.138 km
Eccentricity
0.00016
Inclination
43.002°
RAAN
195.9231°
Arg. of periapsis
279.8873°
True anomaly
80.1978°
Mean anomaly
80.1792°
Eccentric anomaly
80.1885°
Mean motion
3.81732 °/min
Orbital period
94.31 mins
BSTAR
0.000028861
Loading maneuver chart data...
Computing Atmospheric mass density...
Loading historical data...
Loading historical data...
Loading historical data...
Loading historical data...
Loading historical data...
Loading historical data...
Loading historical data...

Documentation

Showing up to 5 results
|